Flag for Germany Weather past 2 weeks in Pulheim, North Rhine-Westphalia, Germany

Now
43 °F

Broken clouds.


Feels Like: 37 °F
Forecast: 31 / 46 °F
Wind: 9 mph from West

Location: Noervenich

Current Time: Feb 27, 2015 at 5:26:24 PM

Latest Report: Feb 27, 2015 at 4:20 PM


Visibility: N/A

Pressure: 30.07 "Hg

Humidity: 61%

Dew point: 30 °F

Location of PulheimLocation

Historic Weather in Pulheim — Graph

°F

Pulheim temperature yesterday

Maximum temperature yesterday: 48 °F (at 12:20 PM)
Minimum temperature yesterday: 36 °F (at 6:20 AM)
Average temperature yesterday: 43 °F

Past Weeks' High & Low Weather Summary

 TemperatureHumidityPressure
High50 °F (Feb 13, 3:20 PM)100% (Feb 17, 6:20 AM)30.74 "Hg (Feb 17, 6:20 AM)
Low27 °F (Feb 19, 7:20 AM)53% (Feb 15, 2:20 PM)29.36 "Hg (Feb 21, 4:20 AM)
Average39 °F82%29.98 "Hg
* Reported Feb 12 3:20 PM — Feb 27 3:20 PM, Pulheim, Weather by CustomWeather, © 2015

Note: Actual official high and low records may vary slightly from our data, if they occured in-between our weather recording intervals... More about our weather records

Advertising

Pulheim weather history for previous 24 hours

 ConditionsComfort  
Time TempWeatherWind HumidityBarometerVisibility
3:20 PM
Fri, Feb 27
43 °FPartly sunny.10 mph66%30.04 "HgN/A
2:20 PM43 °FPartly sunny.10 mph71%30.01 "HgN/A
1:20 PM43 °FBroken clouds.9 mph76%30.01 "HgN/A
12:20 PM43 °FBroken clouds.10 mph76%29.98 "HgN/A
11:20 AM41 °FBroken clouds.8 mph87%29.98 "HgN/A
10:20 AM41 °FBroken clouds.9 mph87%29.95 "Hg5 mi
9:20 AM39 °FLight rain. Broken clouds.8 mph93%29.92 "Hg4 mi
8:20 AM39 °FBroken clouds.7 mph87%29.89 "Hg5 mi
7:20 AM37 °FRain. Mostly cloudy.13 mph93%29.86 "Hg5 mi
6:20 AM39 °FRain. Mostly cloudy.10 mph93%29.83 "HgN/A
5:20 AM41 °FRain. Passing clouds.12 mph93%29.80 "HgN/A
4:20 AM43 °FRain. Passing clouds.2 mph100%29.74 "HgN/A
3:54 AM43 °FRain. Low clouds.2 mph93%29.74 "HgN/A
3:20 AM43 °FLight rain. Passing clouds.1 mph93%29.74 "HgN/A
2:20 AM43 °FRain. Overcast.1 mph93%29.77 "HgN/A
1:20 AM43 °FRain. Overcast.1 mph93%29.77 "Hg6 mi
12:20 AM43 °FRain. Overcast.5 mph93%29.77 "Hg5 mi
11:20 PM
Thu, Feb 26
43 °FRain. Passing clouds.3 mph93%29.80 "Hg5 mi
10:20 PM43 °FPartly cloudy.3 mph93%29.83 "Hg4 mi
9:20 PM43 °FPartly cloudy.5 mph93%29.83 "Hg3 mi
8:20 PM45 °FPassing clouds.6 mph81%29.86 "HgN/A
7:20 PM46 °FPartly cloudy.7 mph76%29.89 "HgN/A
6:20 PM46 °FPartly cloudy.6 mph76%29.89 "HgN/A
5:20 PM46 °FCloudy.8 mph76%29.92 "HgN/A
Weather by CustomWeather, © 2015

See weather overviewHow to use our weather pages